STARLINK-5975, 57372

Orbit data source: Space-Track

STARLINK-5975, 57372 is a payload satellite owned by SpaceX/Seattle (US) in LEO that was launched on Sun, 16 Jul 2023 UTC via an FALCON 9 launch vehicle from the Air Force Eastern Test Range (AFETR). Payload-class satellites include a variety of spacecraft equipped with specific instruments for various scientific and technological missions. These include communications satellites like Starlink; space stations such as the ISS; scientific satellites like the Hubble; Earth observation satellites from companies like Planet Labs, Umbra, and HawkEye 360; GPS; miniature CubeSats for education and research; and military/defense satellites.

Loading next visibility...
Identifier
57372, 2023-099AW
Orbit
LEO
Country
Flag of USUS
Related business
Manufacturer
SpaceX/Seattle
Mission
Operational Commercial Communications
Bus & Motor
STARLINK, Unknown motor
Mass
305 kg wet, ~290 kg dry
Launch date (UTC)
2023-07-16 (3 years ago)
Launch vehicle
FALCON 9
Launch site
Air Force Eastern Test Range (AFETR)
Object type
Payload
Rocket body
Debris
Shape & HBR
Box + 1 Pan, 10.1 m
Radar Cross Section
11.087 m², Large (>1 m²)

Expand to show TLE details & history
Last TLE update: 2 days ago

TLE from 2 days ago
0 STARLINK-5975
1 57372U 23099AW  26171.00547029  .00000183  00000-0  16178-4 0  9990
2 57372  43.0032  24.1376 0001154 262.4504  97.6217 15.27576416161841
Epoch: 2026-06-20T00:07Z
TLE epoch observation values (Epoch: 2026-06-20T00:07:52.633Z)
Latitude
0.00003°
Longitude
113.94202°
Altitude
482.941 km
Speed
7.626 km/s
True Right ascension
01h 36m 33s
True Declination
0° 00' 00"
Sunlit
Object was in daylight at epoch
Visualization orbit readout
Latitude
Unknown
Longitude
Unknown
Altitude
Unknown
Speed
Unknown
Apparent Right ascension
Unknown
Apparent Declination
Unknown
Sunlit
N/A
Visualization observer readout
Local Sidereal Time
21:26:33
Azimuth
Unknown
Elevation
Unknown
Doppler factor
Unknown
Orbital elements
Apogee altitude
485.796 km
Perigee altitude
484.212 km
Semi-major axis
6,863.141 km
Eccentricity
0.00012
Inclination
43.0032°
RAAN
24.1376°
Arg. of periapsis
262.4504°
True anomaly
97.63481°
Mean anomaly
97.6217°
Eccentric anomaly
97.62825°
Mean motion
3.81732 °/min
Orbital period
94.31 mins
BSTAR
0.000016178
Loading maneuver chart data...
Computing Atmospheric mass density...
Loading historical data...
Loading historical data...
Loading historical data...
Loading historical data...
Loading historical data...
Loading historical data...
Loading historical data...

Documentation

Showing up to 5 results
|